Regional Weather Roundup
Issued by NWS

Home | Current Version | Previous Version | Graphics & Text | Print | Product List | Glossary On
Versions: 1 2 3 4 5 6 7 8 9 10 11 12 13 14 15 16 17 18 19 20 21 22 23 24 25 26 27 28 29 30 31 32 33 34 35 36 37 38 39 40 41 42 43 44 45 46 47 48 49 50
963
ASUS43 KLOT 221303
RWRIL

ILLINOIS REGIONAL WEATHER ROUNDUP
NATIONAL WEATHER SERVICE CHICAGO/ROMEOVILLE IL
800 AM CDT SUN APR 22 2018

NOTE: "FAIR" INDICATES FEW OR NO CLOUDS BELOW 12,000 FEET WITH NO
SIGNIFICANT WEATHER AND/OR OBSTRUCTIONS TO VISIBILITY.

* THESE STATIONS ARE NOT UNDER NWS QUALITY CONTROL. THEY ALSO MAY NOT
  REPORT WEATHER SUCH AS PRECIPITATION OR FOG.

ILZ001-002-007-009-015-016-024-221400-
NORTHWEST ILLINOIS

CITY           SKY/WX    TMP DP  RH WIND       PRES   REMARKS
MOLINE         FAIR      48  27  44 E13       30.31R
STERLING*      FAIR      46  27  47 E13       30.35R
SAVANNA*       FAIR      46  25  43 E8        30.35S
$$

ILZ003-004-008-010-011-017-018-221400-
NORTH CENTRAL ILLINOIS

CITY           SKY/WX    TMP DP  RH WIND       PRES   REMARKS
ROCKFORD       PTSUNNY   45  20  36 E7        30.39R
FREEPORT*      FAIR      42  27  54 NE7       30.38S
ROCHELLE*      FAIR      44  28  51 NE9       30.36S
DE KALB*       PTSUNNY   44  25  46 NE8       30.37S
PERU*          FAIR      48  29  48 E9        30.34S
$$

ILZ005-006-012>014-019>023-221400-
NORTHEAST ILLINOIS

CITY           SKY/WX    TMP DP  RH WIND       PRES   REMARKS
CHICAGO-OHARE  PTSUNNY   45  27  49 E7        30.36S
CHICAGO-MIDWAY PTSUNNY   47  29  49 E6        30.37R
AURORA         FAIR      46  25  43 NE7       30.36R
LANSING*       FAIR      49  29  47 E7        30.36S
JOLIET*        FAIR      48  31  50 NE5       30.36S
WAUKEGAN       FAIR      44  25  47 NE7       30.38S
DUPAGE AIRPORT FAIR      45  25  45 NE6       30.36R
KANKAKEE*      FAIR      48  25  41 E8        30.34S
WHEELING       FAIR      46  26  45 NE5       30.39S
MORRIS*        FAIR      46  32  56 NE3       30.34S
ROMEOVILLE*    FAIR      46  31  56 NE7       30.36S
NORTHERLY ISL    N/A     45  32  60 NE5         N/A
$$

LMZ740>746-221400-
SOUTHERN LAKE MICHIGAN

STATION/POSITION SKY/WX   TEMP    WIND        PRES    VSBY  WAVE
                          AIR SEA DIR/SP/G                  HT/PER
                          (F)     (DEG/KT/KT) (MB)    (MI)  (FT/S)
HARRISON CRIB              42      40/  5/  6   N/A
BURNHAM HARBOR             46      40/  4/  8   N/A
CALUMET HARBOR             44      30/  4/  5 1027.7
BURNS HARBOR               45      60/  5/  6 1028.8R
MICHIGAN CITY              47     100/  5/  7   N/A
$$

ILZ025>027-034>036-040-047-049-050-058-095>099-221400-
WEST-CENTRAL ILLINOIS

CITY           SKY/WX    TMP DP  RH WIND       PRES   REMARKS
QUINCY         CLOUDY    50  31  48 E16       30.20S
GALESBURG*     FAIR      51  31  45 E12       30.28S
MACOMB*        MOSUNNY   47  31  54 E9        30.28S
JACKSONVILLE*  CLOUDY    48  32  53 E14       30.23S
PITTSFIELD*    CLOUDY    51  33  50 NE10      30.23R
$$

ILZ028>032-037-038-041>044-048-051>054-059>061-221400-
CENTRAL ILLINOIS

CITY           SKY/WX    TMP DP  RH WIND       PRES   REMARKS
PONTIAC        FAIR      47  32  56 NE13      30.32S
BLOOMINGTON    FAIR      46  31  55 E9        30.29S
DECATUR        CLOUDY    49  31  49 E14       30.26S
PEORIA         FAIR      48  30  49 E14       30.28F
LACON*         FAIR      47  30  50 E13       30.31S
LINCOLN*       FAIR      50  35  55 E7        30.26F
SPRINGFIELD    PTSUNNY   51  33  50 E10       30.24F
TAYLORVILLE    CLOUDY    49  32  52 E13       30.24S
$$

ILZ033-039-045-046-055>057-062-063-221400-
EAST-CENTRAL ILLINOIS

CITY           SKY/WX    TMP DP  RH WIND       PRES   REMARKS
CHAMPAIGN      CLOUDY    48  29  47 E14       30.28S
DANVILLE*      FAIR      46  27  47 E5        30.28S
RANTOUL*       FAIR      48  29  47 E10       30.29S
MATTOON        CLOUDY    50  30  46 E9        30.25S
PARIS*         CLOUDY    48  32  54 E9        30.28F
$$

ILZ079-100>102-221400-
SOUTHWEST ILLINOIS

CITY           SKY/WX    TMP DP  RH WIND       PRES   REMARKS
ALTON          CLOUDY    52  37  58 E9        30.19S
BELLEVILLE     DRIZZLE   50  42  72 E7        30.17S
CAHOKIA*       LGT RAIN  52  44  74 E6        30.17R
SPARTA*        LGT RAIN  50  50 100 E8        30.17F
$$

ILZ064>066-069>071-074>076-080>082-084>086-088>090-092>094-221400-
SOUTH-CENTRAL ILLINOIS

CITY           SKY/WX    TMP DP  RH WIND       PRES   REMARKS
CARBONDALE     LGT RAIN  51  49  92 E5        30.16F FOG
CAIRO*         DRIZZLE   51  47  88 NE7       30.13S
EFFINGHAM*     CLOUDY    51  33  48 NE5       30.25F
MARION         CLOUDY    52  50  93 E7        30.17F
MT. VERNON     LGT RAIN  50  43  77 NE7       30.19S
CENTRALIA*     LGT RAIN  51  43  73 E6        30.19S
SALEM*         LGT RAIN  51  38  62 E9        30.20S
METROPOLIS*    LGT RAIN  51  45  78 NE5       30.14F
$$

ILZ067-068-072-073-078-083-087-091-221400-
SOUTHEAST ILLINOIS

CITY           SKY/WX    TMP DP  RH WIND       PRES   REMARKS
LAWRENCEVILLE  PTSUNNY   54  30  40 NE9       30.24F
FLORA*         CLOUDY    51  38  59 NE8       30.23S
FAIRFIELD*     CLOUDY    51  38  61 CALM      30.19S
HARRISBURG*    CLOUDY    51  46  83 CALM      30.19S
ROBINSON*      PTSUNNY   50  33  52 NE8       30.26F
CARMI*         CLOUDY    51  41  68 NE10      30.18F
$$

ABBREVIATIONS USED IN REMARKS
   TC - TEMPERATURE IN CELSIUS
  WCI - WIND CHILL INDEX
   HX - HEAT INDEX
  VSB - VISIBILITY
$$





USA.gov is the U.S. government's official web portal to all federal, state and local government web resources and services.